• MPC Preparation (Info)

  • MPEC 2023-K195 : COMET C/2023 H3 (PANSTARRS)

    The following Minor Planet Electronic Circular may be linked-to from your own Web pages, but must not otherwise be redistributed electronically.

    A form allowing access to any MPEC is at the bottom of this page.


    Read MPEC 2023-K194 Read MPEC 2023-K196


    M.P.E.C. 2023-K195                                 Issued 2023 May 30, 05:07 UT
    
         The Minor Planet Electronic Circulars contain information on unusual
             minor planets, routine data on comets and natural satellites,
             and occasional editorial announcements.  They are published
        on behalf of Division F of the International Astronomical Union by the
              Minor Planet Center, Smithsonian Astrophysical Observatory,
                              Cambridge, MA 02138, U.S.A.
    			  
                 Prepared using the Tamkin Foundation Computer Network
    
                                  MPC@CFA.HARVARD.EDU
                URL https://www.minorplanetcenter.net/    ISSN 1523-6714
    
                           COMET C/2023 H3 (PANSTARRS)                       
    
         R. Weryk reports the discovery of a comet in four 45-second survey images
    taken on Apr. 28 UT by Pan-STARRS 2 (F52), noting a condensed 0".6 coma.
    Prediscovery positions were reported back to Mar. 2023. Additional reports of
    cometary features are as follows:
    
    OC   Date        Reporter           Coma    Tail    PA          Exposures
    
    X07  2023-04-29  H. Sato            7"                            9x120s
    F51  2023-05-12  R. Weryk           0".7                          4x45s
    T12  2023-05-28  Y. Ramanjooloo     3"                            3x240s
    
    Observations:
        CK23H030  C2023 03 16.57585614 39 08.103-14 26 48.56         20.70GVEK195F52
        CK23H030  C2023 03 16.58669314 39 08.025-14 26 48.38         21.48GVEK195F52
        CK23H030  C2023 03 16.61025014 39 07.844-14 26 47.16         20.90GVEK195F52
        CK23H030  C2023 03 31.57451614 36 10.021-14 15 01.12         21.32wUEK195F51
        CK23H030  C2023 03 31.58569414 36 09.829-14 15 00.26         21.53wUEK195F51
        CK23H030  C2023 03 31.59686914 36 09.676-14 14 59.52         21.24wUEK195F51
        CK23H030  C2023 03 31.60800714 36 09.462-14 14 58.83         21.31wUEK195F51
        CK23H030  C2023 04 15.43416114 31 23.022-13 55 14.35         20.98wUEK195F52
        CK23H030  C2023 04 15.44494214 31 22.767-13 55 13.20         21.35wUEK195F52
        CK23H030  C2023 04 15.45577914 31 22.526-13 55 12.17         20.91wUEK195F52
        CK23H030  C2023 04 15.46658414 31 22.260-13 55 11.38         20.88wUEK195F52
        CK23H030  C2023 04 21.46980614 29 05.363-13 45 39.07         20.49GVEK195F52
        CK23H030  C2023 04 21.48071314 29 05.085-13 45 38.01         20.45GVEK195F52
        CK23H030  C2023 04 21.49159214 29 04.829-13 45 36.97         20.62GVEK195F52
        CK23H030* C2023 04 28.39582214 26 19.977-13 34 06.03         20.89wXEK195F52
        CK23H030  C2023 04 28.40795614 26 19.643-13 34 04.85         21.13wXEK195F52
        CK23H030  C2023 04 28.42011214 26 19.359-13 34 03.45         20.82wXEK195F52
        CK23H030  C2023 04 28.43227014 26 19.053-13 34 02.21         21.19wXEK195F52
        CK23H030 0C2023 04 29.38097 14 25 55.99 -13 32 24.3                VEK195X07
        CK23H030 0C2023 04 29.38812 14 25 55.82 -13 32 23.8          20.1 GVEK195X07
        CK23H030 KC2023 04 30.24073 14 25 35.34 -13 30 59.6          20.4 RVEK195691
        CK23H030 KC2023 04 30.25164 14 25 35.05 -13 30 57.9          20.2 RVEK195691
        CK23H030 KC2023 04 30.26254 14 25 34.78 -13 30 56.5          20.5 RVEK195691
        CK23H030  C2023 04 30.39533714 25 31.584-13 30 43.50         20.54GVEK195F51
        CK23H030  C2023 04 30.39614914 25 31.543-13 30 43.44         20.30GVEK195F51
        CK23H030 1C2023 05 10.23065414 21 36.468-13 14 24.43         20.37GVEK195G96
        CK23H030 1C2023 05 10.23754314 21 36.292-13 14 23.93         20.67GVEK195G96
        CK23H030 1C2023 05 10.24328314 21 36.158-13 14 23.42         20.47GVEK195G96
        CK23H030 1C2023 05 10.24900914 21 36.000-13 14 23.06         20.38GVEK195G96
        CK23H030 KC2023 05 12.15354414 20 51.93 -13 11 20.8          20.0 GXEK195W62
        CK23H030 KC2023 05 12.17740114 20 51.39 -13 11 18.2          20.1 GXEK195W62
        CK23H030 KC2023 05 12.20055214 20 50.82 -13 11 16.2          19.9 GXEK195W62
        CK23H030  C2023 05 12.37938014 20 46.793-13 10 59.16         21.00wXEK195F51
        CK23H030  C2023 05 12.39203714 20 46.495-13 10 58.05         21.03wXEK195F51
        CK23H030  C2023 05 12.40462614 20 46.182-13 10 56.76         20.94wXEK195F51
        CK23H030  C2023 05 12.41723714 20 45.894-13 10 55.66         21.24wXEK195F51
        CK23H030 2C2023 05 17.93577214 18 43.49 -13 02 35.1          20.6 GVEK195Z24
        CK23H030 2C2023 05 17.93892114 18 43.40 -13 02 34.9          20.2 GVEK195Z24
        CK23H030 2C2023 05 17.94206014 18 43.35 -13 02 34.5          20.8 GVEK195Z24
        CK23H030 2C2023 05 17.94520514 18 43.30 -13 02 34.0          20.6 GVEK195Z24
        CK23H030  C2023 05 25.30953514 16 15.407-12 52 45.88         21.28wXEK195F52
        CK23H030  C2023 05 25.32102514 16 15.166-12 52 44.51         21.42wXEK195F52
        CK23H030  C2023 05 25.33252214 16 14.971-12 52 43.82         21.33wXEK195F52
        CK23H030  C2023 05 25.34407314 16 14.713-12 52 42.50         21.30wXEK195F52
        CK23H030 1C2023 05 28.34506914 15 20.885-12 49 15.70         19.90GVEK195T12
        CK23H030 1C2023 05 28.34960914 15 20.818-12 49 15.61         20.45GVEK195T12
        CK23H030 1C2023 05 28.35366914 15 20.737-12 49 15.21         20.28GVEK195T12
    
    Observer details:
    691 Steward Observatory, Kitt Peak-Spacewatch.  Observer M. J. Brucker.  0.9-m
        f/3 reflector + CCD.
    F51 Pan-STARRS 1, Haleakala.  Observers J. Bulger, T. Lowe, A. Schultz, I.
        Smith, K. Chambers.  Measurers K. Chambers, S. Chastel, T. de Boer, J.
        Fairlamb, H. Gao, M. Huber, C.-C. Lin, E. Magnier, Y. Ramanjooloo, R.
        Wainscoat, R. Weryk.  1.8-m Ritchey-Chretien + CCD.
    F52 Pan-STARRS 2, Haleakala.  Observers J. Bulger, K. Chambers, T. Dukes, T.
        Lowe, A. Schultz, I. Smith.  Measurers S. Chastel, J. Fairlamb, M. Huber,
        Y. Ramanjooloo, R. Wainscoat, R. Weryk, K. Chambers, T. de Boer, H. Gao,
        C.-C. Lin, E. Magnier.  1.8-m Ritchey-Chretien + CCD.
    G96 Mt. Lemmon Survey.  Observer G. J. Leonard.  Measurers E. J. Christensen,
        D. Fay, J. B. Fazekas, D. C. Fuls, A. R. Gibbs, A. D. Grauer, H. Groeller,
        J. K. Hogan, R. A. Kowalski, S. M. Larson, G. J. Leonard, D. Rankin, R. L.
        Seaman, A. Serrano, F. C. Shelly, K. W. Wierzchos.  1.5-m reflector + 10K
        CCD.
    T12 University of Hawaii 88-inch telescope, Maunakea.  Observer Y.
        Ramanjooloo.  Measurers R. Weryk, Y. Ramanjooloo, R. Wainscoat.  2.24-m
        University of Hawaii reflector + CCD.
    W62 Comet Hunter Observatory2, New Ringgold.  Observer J. Maikner.  0.30-m
        f/3.8 Riccardi-Honders + CCD.
    X07 iTelescope Deep Sky Chile, Rio Hurtado.  Observer H. Sato.  0.51-m f/6.8
        astrograph + CCD.
    Z24 Tenerife Observatory-LCO B, Tenerife.  Observers J. D. Armstrong, D. E.
        Rice.  1.0-m f/8 modified Ritchey-Chretien + CCD.
    
    Orbital elements:
        C/2023 H3 (PANSTARRS)                                                       
    Epoch 2023 Feb. 25.0 TT = JDT 2460000.5                                         
    T 2024 Feb. 18.86591 TT                                 Rudenko                 
    q   5.2324800            (2000.0)            P               Q                  
    n   0.01955643     Peri.  193.31154     -0.36800511     +0.92914153             
    a  13.6440407      Node    55.10679     -0.84907080     -0.32018631             
    e   0.6165007      Incl.    2.48846     -0.37901321     -0.18486952             
    P  50.4                                                                         
    From 47 observations 2023 Mar. 16-May 28, mean residual 0".2.                   
                                                                                    
    Ephemeris:
    Date    TT    R. A. (2000) Decl.     Delta      r    Elong.  Phase   m1    m2
    2023 04 30    14 25 41.1 -13 31 22   4.5037  5.5106   179.0     0.2  20.7
    ...
    2023 05 15    14 19 47.6 -13 06 55   4.5079  5.4841   163.4     3.0  20.7
    ...
    2023 05 23    14 16 59.5 -12 55 37   4.5362  5.4704   155.0     4.5  20.7
    ...
    2023 05 29    14 15 09.7 -12 48 32   4.5684  5.4603   148.8     5.5  20.7
    2023 05 30    14 14 53.0 -12 47 30   4.5747  5.4587   147.7     5.7  20.7
    2023 05 31    14 14 36.8 -12 46 30   4.5812  5.4570   146.7     5.9  20.7
    ...
    2023 06 06    14 13 10.5 -12 41 25   4.6249  5.4472   140.6     6.8  20.7
    ...
    2023 06 14    14 11 47.0 -12 37 22   4.6952  5.4345   132.6     7.9  20.7
    ...
    2023 06 29    14 10 59.9 -12 39 09   4.8575  5.4116   118.1     9.5  20.8
    
    M. P. C. Staff               (C) Copyright 2023 MPC           M.P.E.C. 2023-K195
    


    Read MPEC 2023-K194 Read MPEC 2023-K196


    MPEC number:

    Enter an MPEC number in one of the following forms:

    • 1997-B01 (the full form)
    • J97B01 (the packed version of the full form)
    • B01 (the abbreviated form)